Date,TemperatureHighF,TemperatureAvgF,TemperatureLowF,DewpointHighF,DewpointAvgF,DewpointLowF,HumidityHigh,HumidityAvg,HumidityLow,PressureMaxIn,PressureMinIn,WindSpeedMaxMPH,WindSpeedAvgMPH,GustSpeedMaxMPH,PrecipitationSumIn
2013-1-1,25,18,16,20,15,13,92,90,78,30.70,30.57,7,1,11,0.00
2013-1-2,18,16,14,16,14,12,93,91,90,30.69,30.58,1,0,1,0.00
2013-1-3,23,17,12,16,13,9,93,86,71,30.58,30.41,2,0,3,0.00
2013-1-4,42,26,20,25,18,13,83,71,51,30.53,30.38,12,3,13,0.02
2013-1-5,27,23,18,25,20,16,93,91,82,30.40,30.30,0,0,0,0.00
2013-1-6,42,32,24,31,26,21,90,79,63,30.32,30.15,7,2,9,0.05
2013-1-7,50,43,35,39,34,27,82,69,57,30.16,30.05,21,7,27,0.02
2013-1-8,55,46,41,40,36,33,78,70,55,30.17,29.94,16,3,21,0.00
2013-1-9,50,43,35,35,32,26,75,65,47,29.96,29.70,20,8,28,0.00
2013-1-10,35,29,23,29,23,18,91,78,62,30.08,30.00,4,0,12,0.01
2013-1-11,30,24,16,22,18,12,86,77,62,30.34,30.08,6,1,12,0.00
2013-1-12,28,18,10,18,12,7,86,78,60,30.47,30.34,7,1,10,0.00
2013-1-13,30,18,6,17,10,3,85,74,49,30.56,30.46,3,0,5,0.00
2013-1-14,41,26,13,26,15,7,81,66,39,30.58,30.46,9,3,13,0.00
2013-1-15,49,32,19,28,21,14,86,66,42,30.69,30.56,9,2,11,0.00
2013-1-16,55,37,25,26,21,17,75,56,30,30.67,30.52,7,2,13,0.00
2013-1-17,52,38,27,24,21,18,69,51,31,30.53,30.40,12,5,16,0.00
2013-1-18,48,37,29,23,19,16,61,50,34,30.43,30.34,14,7,18,0.00
2013-1-19,58,38,27,28,21,17,67,53,24,30.44,30.35,12,4,14,0.00
2013-1-20,44,32,23,26,21,16,87,65,40,30.49,30.39,8,2,8,0.00
2013-1-21,49,28,19,26,20,14,89,72,31,30.41,30.27,11,2,14,0.00
2013-1-22,25,20,16,23,18,14,93,92,90,30.32,30.21,6,1,9,0.00
2013-1-23,37,27,22,31,25,21,94,91,79,30.24,30.00,8,2,11,0.00
2013-1-24,54,39,30,39,33,28,94,82,53,30.27,30.14,5,0,7,0.00
2013-1-25,48,44,39,43,40,37,95,85,77,30.17,29.92,6,1,13,0.09
2013-1-26,44,37,31,37,28,24,92,69,51,30.06,29.91,13,2,19,0.05
2013-1-27,40,33,27,28,26,23,86,73,53,30.13,30.05,10,2,13,0.01
2013-1-28,38,35,32,32,29,27,88,78,71,30.15,30.06,14,4,20,0.00
2013-1-29,45,40,37,34,32,31,79,73,65,30.41,30.14,15,7,24,0.00
2013-1-30,48,44,39,36,34,30,80,70,63,30.43,30.38,11,4,17,0.00
2013-1-31,49,40,31,37,33,29,93,78,59,30.40,30.31,3,0,6,0.00